Comanche, TX

11:42 PM CST on December 11, 2017 (GMT -0600)
Comanche

Weather History for KMKN - January, 2014

Change the Weather History Date:

Sunday, January 12, 2014

  Actual Average (KSEP) Record (KSEP)
Temperature  
Mean Temperature 61 °F -  
Max Temperature 77 °F 52 °F 78 °F (2006)
Min Temperature 45 °F 28 °F 6 °F (1962)
Degree Days  
Heating Degree Days 4    
Growing Degree Days 11 (Base 50)    
Moisture  
Dew Point 34 °F    
Average Humidity 39    
Maximum Humidity 70    
Minimum Humidity 19    
Precipitation  
Precipitation 0.00 in - - ()
Sea Level Pressure  
Sea Level Pressure 29.91 in    
Wind  
Wind Speed 17 mph (SSW)    
Max Wind Speed 34 mph    
Max Gust Speed 44 mph    
Visibility 9 miles    
Events      
Averages and records for this station are not official NWS values.
T = Trace of Precipitation, MM = Missing Value Source: NWS Daily Summary

Daily Weather History Graph

Daily Weather History Graph

Search for Another Location

Airport or City:

Trip Planner

Search our weather history database for the weather conditions in past years. The results will help you decide how hot, cold, wet, or windy it might be!

Date:

Astronomy

Jan. 12, 2014 Rise Set
Actual Time 7:35 AM CST 5:50 PM CST
Civil Twilight 7:08 AM CST 6:16 PM CST
Nautical Twilight 6:38 AM CST 6:46 PM CST
Astronomical Twilight 6:09 AM CST 7:16 PM CST
Moon 3:18 PM CST 4:37 AM CST
Length of Visible Light 11h 07m
Length of Day
10h 14m
Waxing Gibbous, 90% of the Moon is Illuminated
Jan 12
Waxing Gibbous
Jan 15
Full
Jan 23
Last Quarter
Jan 30
New
Feb 6
First Quarter

Hourly Weather History & Observations

Time (CST) Temp. Windchill Dew Point Humidity Pressure Visibility Wind Dir Wind Speed Gust Speed Precip Events Conditions
12:15 AM 45.9 °F 40.4 °F 25.7 °F 45% 30.06 in 10.0 mi South 11.5 mph - N/A   Clear
12:35 AM 49.1 °F - 25.9 °F 40% 30.06 in 10.0 mi South 10.4 mph - N/A   Clear
12:55 AM 50.9 °F - 24.4 °F 36% 30.05 in 10.0 mi SSW 12.7 mph - N/A   Clear
1:15 AM 51.8 °F - 24.1 °F 34% 30.04 in 10.0 mi SSW 15.0 mph - N/A   Clear
1:35 AM 52.3 °F - 23.9 °F 33% 30.04 in 10.0 mi South 15.0 mph - N/A   Clear
1:55 AM 51.8 °F - 24.3 °F 34% 30.03 in 10.0 mi SSW 11.5 mph - N/A   Clear
2:15 AM 52.0 °F - 25.3 °F 36% 30.02 in 10.0 mi SSW 13.8 mph - N/A   Clear
2:35 AM 51.4 °F - 25.5 °F 37% 30.02 in 10.0 mi South 9.2 mph - N/A   Clear
2:55 AM 52.9 °F - 26.1 °F 35% 30.02 in 10.0 mi SSW 10.4 mph 16.1 mph N/A   Clear
3:15 AM 55.0 °F - 25.9 °F 33% 30.02 in 10.0 mi South 15.0 mph 24.2 mph N/A   Clear
3:35 AM 54.5 °F - 25.7 °F 33% 30.01 in 10.0 mi SSW 16.1 mph 21.9 mph N/A   Clear
3:55 AM 54.3 °F - 26.2 °F 34% 30.00 in 10.0 mi SSW 17.3 mph 26.5 mph N/A   Clear
4:15 AM 54.5 °F - 26.2 °F 34% 29.99 in 10.0 mi SSW 23.0 mph 29.9 mph N/A   Clear
4:35 AM 54.1 °F - 26.2 °F 34% 29.99 in 10.0 mi SSW 18.4 mph 25.3 mph N/A   Clear
4:55 AM 53.6 °F - 26.4 °F 35% 29.99 in 10.0 mi SSW 15.0 mph 21.9 mph N/A   Clear
5:15 AM 52.3 °F - 26.4 °F 37% 29.99 in 10.0 mi SSW 13.8 mph 21.9 mph N/A   Clear
5:35 AM 52.7 °F - 26.6 °F 36% 29.99 in 10.0 mi SSW 19.6 mph 26.5 mph N/A   Clear
5:55 AM 50.9 °F - 27.7 °F 41% 29.98 in 10.0 mi SSW 18.4 mph 25.3 mph N/A   Clear
6:15 AM 49.3 °F - 28.4 °F 45% 29.98 in 10.0 mi SSW 16.1 mph - N/A   Clear
6:35 AM 49.5 °F - 28.4 °F 44% 29.98 in 10.0 mi South 13.8 mph - N/A   Clear
6:55 AM 49.6 °F - 28.9 °F 45% 29.98 in 10.0 mi South 12.7 mph 19.6 mph N/A   Clear
7:15 AM 49.3 °F - 29.1 °F 46% 29.97 in 10.0 mi South 12.7 mph - N/A   Clear
7:35 AM 49.6 °F - 28.4 °F 44% 29.97 in 10.0 mi SSW 16.1 mph 19.6 mph N/A   Clear
7:55 AM 51.1 °F - 27.0 °F 39% 29.97 in 10.0 mi SSW 16.1 mph 24.2 mph N/A   Clear
8:15 AM 51.8 °F - 27.0 °F 38% 29.98 in 10.0 mi SSW 16.1 mph - N/A   Clear
8:35 AM 53.2 °F - 26.1 °F 35% 29.98 in 10.0 mi SSW 17.3 mph 26.5 mph N/A   Clear
8:55 AM 55.0 °F - 25.5 °F 32% 29.98 in 10.0 mi SSW 20.7 mph 26.5 mph N/A   Clear
9:15 AM 57.4 °F - 24.6 °F 28% 29.99 in 10.0 mi SSW 19.6 mph 26.5 mph N/A   Clear
9:35 AM 59.2 °F - 24.4 °F 26% 29.98 in 10.0 mi SSW 26.5 mph 32.2 mph N/A   Clear
9:55 AM 59.9 °F - 25.5 °F 27% 29.99 in 10.0 mi SSW 19.6 mph 38.0 mph N/A   Clear
10:15 AM 60.8 °F - 26.4 °F 27% 29.98 in 10.0 mi SSW 20.7 mph 39.1 mph N/A   Clear
10:35 AM 61.9 °F - 27.7 °F 27% 29.98 in 10.0 mi SSW 28.8 mph 39.1 mph N/A   Clear
10:55 AM 63.3 °F - 29.3 °F 28% 29.97 in 10.0 mi SSW 20.7 mph 36.8 mph N/A   Clear
11:15 AM 64.8 °F - 30.2 °F 27% 29.97 in 10.0 mi SSW 26.5 mph 36.8 mph N/A   Clear
11:35 AM 68.0 °F - 30.4 °F 25% 29.96 in 10.0 mi SSW 20.7 mph 35.7 mph N/A   Clear
11:55 AM 68.9 °F - 30.2 °F 24% 29.94 in 10.0 mi SSW 23.0 mph 33.4 mph N/A   Clear
12:15 PM 70.5 °F - 29.8 °F 22% 29.92 in 10.0 mi SSW 27.6 mph 39.1 mph N/A   Clear
12:35 PM 72.3 °F - 30.4 °F 21% 29.90 in 7.0 mi SSW 24.2 mph 35.7 mph N/A   Scattered Clouds
12:55 PM 77.0 °F - 31.1 °F 19% 29.88 in 0.2 mi SSW 34.5 mph 41.4 mph N/A   Haze
1:15 PM 72.0 °F - 29.3 °F 21% 29.87 in 0.2 mi SSW 33.4 mph 42.6 mph N/A   Haze
1:35 PM 73.9 °F - 29.8 °F 20% 29.86 in 1.0 mi SSW 28.8 mph 40.3 mph N/A   Haze
1:55 PM 73.9 °F - 30.0 °F 20% 29.85 in 1.5 mi SSW 29.9 mph 41.4 mph N/A   Haze
2:15 PM 73.9 °F - 32.5 °F 22% 29.84 in 2.5 mi SSW 31.1 mph 43.7 mph N/A   Haze
2:35 PM 71.6 °F - 35.4 °F 27% 29.83 in 5.0 mi SSW 29.9 mph 35.7 mph N/A   Haze
2:55 PM 71.8 °F - 38.1 °F 29% 29.83 in 5.0 mi SSW 29.9 mph 35.7 mph N/A   Haze
3:15 PM 71.2 °F - 39.7 °F 32% 29.83 in 10.0 mi SSW 19.6 mph 29.9 mph N/A   Clear
3:35 PM 69.8 °F - 40.1 °F 34% 29.83 in 10.0 mi SSW 19.6 mph - N/A   Clear
3:55 PM 69.6 °F - 41.7 °F 36% 29.82 in 10.0 mi South 15.0 mph 20.7 mph N/A   Clear
4:15 PM 71.1 °F - 41.9 °F 35% 29.81 in 10.0 mi South 17.3 mph 25.3 mph N/A   Clear
4:35 PM 72.3 °F - 40.3 °F 31% 29.81 in 10.0 mi South 24.2 mph 29.9 mph N/A   Clear
4:55 PM 70.0 °F - 40.3 °F 34% 29.80 in 10.0 mi South 25.3 mph 33.4 mph N/A   Clear
5:15 PM 68.9 °F - 42.6 °F 39% 29.80 in 10.0 mi South 24.2 mph 33.4 mph N/A   Clear
5:35 PM 66.7 °F - 43.9 °F 44% 29.80 in 10.0 mi South 16.1 mph - N/A   Clear
5:55 PM 65.5 °F - 44.2 °F 46% 29.81 in 10.0 mi South 16.1 mph - N/A   Clear
6:15 PM 64.4 °F - 43.3 °F 46% 29.81 in 10.0 mi South 15.0 mph - N/A   Clear
6:35 PM 64.2 °F - 39.6 °F 40% 29.82 in 10.0 mi South 16.1 mph 21.9 mph N/A   Clear
6:55 PM 64.4 °F - 38.3 °F 38% 29.81 in 10.0 mi South 18.4 mph - N/A   Clear
7:15 PM 63.0 °F - 39.4 °F 42% 29.81 in 10.0 mi South 18.4 mph 24.2 mph N/A   Clear
7:35 PM 62.1 °F - 40.1 °F 44% 29.81 in 10.0 mi South 18.4 mph 27.6 mph N/A   Clear
7:55 PM 62.1 °F - 41.0 °F 46% 29.81 in 10.0 mi SSW 19.6 mph 27.6 mph N/A   Clear
8:15 PM 61.7 °F - 42.8 °F 50% 29.82 in 10.0 mi South 21.9 mph 28.8 mph N/A   Clear
8:35 PM 61.5 °F - 44.1 °F 53% 29.82 in 10.0 mi SSW 23.0 mph 28.8 mph N/A   Clear
8:55 PM 61.2 °F - 45.0 °F 55% 29.81 in 10.0 mi SSW 23.0 mph 32.2 mph N/A   Clear
9:15 PM 61.0 °F - 46.2 °F 58% 29.82 in 10.0 mi SSW 21.9 mph 27.6 mph N/A   Clear
9:35 PM 60.6 °F - 46.4 °F 59% 29.83 in 10.0 mi SSW 17.3 mph 25.3 mph N/A   Clear
9:55 PM 59.5 °F - 46.8 °F 63% 29.83 in 10.0 mi SSW 16.1 mph - N/A   Clear
10:15 PM 59.9 °F - 47.3 °F 63% 29.83 in 10.0 mi SSW 19.6 mph 25.3 mph N/A   Clear
10:35 PM 59.0 °F - 47.7 °F 66% 29.84 in 10.0 mi SSW 18.4 mph 25.3 mph N/A   Clear
10:55 PM 59.2 °F - 48.2 °F 67% 29.84 in 10.0 mi SSW 17.3 mph 25.3 mph N/A   Clear
11:15 PM 58.8 °F - 48.2 °F 68% 29.83 in 10.0 mi SSW 17.3 mph 24.2 mph N/A   Clear
11:35 PM 58.5 °F - 48.6 °F 70% 29.82 in 10.0 mi SSW 18.4 mph 24.2 mph N/A   Clear
11:55 PM 59.0 °F - 49.1 °F 70% 29.83 in 10.0 mi SSW 19.6 mph 25.3 mph N/A   Clear